La Junta, CO

12:30 PM MST on December 06, 2016 (GMT -0700)
La Junta Municipal

Weather History for KLHX - October, 2013

Change the Weather History Date:

Tuesday, October 1, 2013

  Actual Average Record
Temperature  
Mean Temperature 70 °F 60 °F  
Max Temperature 83 °F 76 °F 92 °F (1963)
Min Temperature 57 °F 45 °F 30 °F (1985)
Degree Days  
Heating Degree Days 0 6  
Month to date heating degree days 0 6  
Since 1 July heating degree days 12 79  
Cooling Degree Days 5 1  
Month to date cooling degree days 5 1  
Year to date cooling degree days 1660 1217  
Growing Degree Days 20 (Base 50)    
Moisture  
Dew Point 38 °F    
Average Humidity 35    
Maximum Humidity 51    
Minimum Humidity 18    
Precipitation  
Precipitation 0.00 in 0.03 in 0.51 in (1998)
Month to date precipitation 0.00 0.03  
Year to date precipitation 4.72  
Sea Level Pressure  
Sea Level Pressure 29.79 in    
Wind  
Wind Speed 10 mph (NE)    
Max Wind Speed 21 mph    
Max Gust Speed 24 mph    
Visibility 10 miles    
Events      
T = Trace of Precipitation, MM = Missing Value Source: NWS Daily Summary

Daily Weather History Graph

Daily Weather History Graph

Search for Another Location

Airport or City:

Trip Planner

Search our weather history database for the weather conditions in past years. The results will help you decide how hot, cold, wet, or windy it might be!

Date:

Astronomy

Oct. 01, 2013 Rise Set
Actual Time 6:49 AM MDT 6:36 PM MDT
Civil Twilight 6:23 AM MDT 7:02 PM MDT
Nautical Twilight 5:53 AM MDT 7:33 PM MDT
Astronomical Twilight 5:22 AM MDT 8:03 PM MDT
Moon 3:29 AM MDT (10/1) 4:39 PM MDT (10/1)
Length of Visible Light 12h 39m
Length of Day
11h 46m
Waning Crescent, 11% of the Moon is Illuminated
Oct 1
Waning Crescent
Oct 4
New
Oct 11
First Quarter
Oct 18
Full
Oct 26
Last Quarter

Hourly Weather History & Observations

Time (MDT) Temp. Dew Point Humidity Pressure Visibility Wind Dir Wind Speed Gust Speed Precip Events Conditions
12:53 AM 66.0 °F 30.9 °F 27% 29.62 in 10.0 mi WSW 16.1 mph - N/A   Clear
1:53 AM 60.1 °F 34.0 °F 38% 29.66 in 10.0 mi West 16.1 mph - N/A   Clear
2:53 AM 60.1 °F 33.1 °F 36% 29.68 in 10.0 mi NW 5.8 mph - N/A   Clear
3:53 AM 57.0 °F 36.0 °F 45% 29.70 in 10.0 mi West 15.0 mph - N/A   Clear
4:53 AM 60.1 °F 35.1 °F 39% 29.71 in 10.0 mi WNW 11.5 mph - N/A   Clear
5:53 AM 64.0 °F 36.0 °F 35% 29.75 in 10.0 mi North 9.2 mph - N/A   Clear
6:53 AM 62.1 °F 35.1 °F 37% 29.80 in 10.0 mi North 8.1 mph - N/A   Clear
7:53 AM 64.0 °F 36.0 °F 35% 29.86 in 10.0 mi North 4.6 mph - N/A   Clear
8:53 AM 64.0 °F 39.9 °F 41% 29.89 in 10.0 mi NNE 10.4 mph - N/A   Clear
9:53 AM 66.9 °F 39.9 °F 37% 29.91 in 10.0 mi North 9.2 mph - N/A   Clear
10:53 AM 70.0 °F 37.9 °F 31% 29.89 in 10.0 mi NNW 9.2 mph - N/A   Clear
11:53 AM 73.9 °F 36.0 °F 25% 29.87 in 10.0 mi North 10.4 mph - N/A   Clear
12:53 PM 78.1 °F 35.1 °F 21% 29.85 in 10.0 mi NE 9.2 mph - N/A   Clear
1:53 PM 81.0 °F 34.0 °F 18% 29.82 in 10.0 mi East 12.7 mph 18.4 mph N/A   Clear
2:53 PM 82.0 °F 37.0 °F 20% 29.81 in 10.0 mi ENE 12.7 mph - N/A   Clear
3:53 PM 80.1 °F 41.0 °F 25% 29.80 in 10.0 mi East 13.8 mph 19.6 mph N/A   Clear
4:53 PM 80.1 °F 39.0 °F 23% 29.79 in 10.0 mi ESE 16.1 mph - N/A   Clear
5:53 PM 78.1 °F 41.0 °F 27% 29.78 in 10.0 mi ESE 12.7 mph - N/A   Clear
6:53 PM 73.0 °F 42.1 °F 33% 29.79 in 10.0 mi ESE 10.4 mph - N/A   Clear
7:53 PM 69.1 °F 43.0 °F 39% 29.81 in 10.0 mi SE 9.2 mph - N/A   Clear
8:53 PM 66.0 °F 42.1 °F 42% 29.82 in 10.0 mi ESE 6.9 mph - N/A   Clear
9:53 PM 63.0 °F 42.1 °F 46% 29.82 in 10.0 mi East 5.8 mph - N/A   Clear
10:53 PM 63.0 °F 42.1 °F 46% 29.81 in 10.0 mi SE 4.6 mph - N/A   Clear
11:53 PM 59.0 °F 41.0 °F 51% 29.80 in 10.0 mi East 4.6 mph - N/A   Clear